Date String (YYYY-MM-DD hh:mm:ss) UTC,Instrument flags,absolute air pressure of the measurement (hPa),sample flow rate (lpm),inlet stack bypass flow (lpm),air temperature of the measurement (°C),ambient temperature measured by the external sensor (°C),aerosol sample conditioner tube jacket temperature (°C),OPC LED temperature (°C),internal box temperature (°C),relative humidity of the measurement (%),span deviation,mass concentration of particles derived from Lorenz-Mie calculation of OPC scattering (μg/m³),mass concentration of particles derived from Lorenz-Mie calculation of OPC scattering (μg/m³),mass concentration of particles derived from Lorenz-Mie calculation of OPC scattering (μg/m³)
DateTimeUTC,F1_M11,P_M11,Q1_M11,Q2_M11,T1_M11,T2_M11,T3_M11,T4_M11,T5_M11,U1_M11,ZSPAN_M11,X2_M11,X0_M11,X1_M11
2023-06-07 17:00:00,SystemResetWarning,0829.9,5.00,000.00,029.5,024.7,000.0,037.8,030.9,26.6,0000.0,0004.60,0010.43,0004.14
2023-06-07 17:01:00,SystemResetWarning,0829.8,5.01,000.00,029.4,024.7,000.0,037.8,030.9,27.1,0000.0,0004.59,0010.12,0004.13
2023-06-07 17:02:00,SystemResetWarning,0829.8,5.01,000.00,029.3,025.0,000.0,037.8,030.6,27.9,0000.0,0004.58,0009.33,0004.13
2023-06-07 17:03:00,SystemResetWarning,0829.8,4.99,000.00,029.3,025.4,000.0,037.8,030.5,29.3,0000.0,0004.58,0008.98,0004.15
2023-06-07 17:04:00,SystemResetWarning,0829.8,5.00,000.00,029.2,025.8,000.0,037.8,030.5,29.8,0000.0,0004.61,0008.99,0004.17
2023-06-07 17:05:00,SystemResetWarning,0829.8,5.00,000.00,029.2,026.2,000.0,037.8,030.5,29.3,0000.0,0004.64,0009.00,0004.20
2023-06-07 17:06:00,SystemResetWarning,0829.8,5.00,000.00,029.2,026.6,000.0,037.8,030.6,29.4,0000.0,0004.69,0009.09,0004.24
2023-06-07 17:07:00,SystemResetWarning,0829.8,5.00,000.00,029.2,026.8,000.0,037.8,030.6,29.6,0000.0,0004.71,0010.26,0004.28
2023-06-07 17:08:00,SystemResetWarning,0829.8,5.00,000.00,029.2,027.1,000.0,037.8,030.7,30.3,0000.0,0004.73,0010.47,0004.32
2023-06-07 17:09:00,SystemResetWarning,0829.8,5.00,000.00,029.2,027.3,000.0,037.8,030.7,30.1,0000.0,0004.76,0010.52,0004.36
2023-06-07 17:10:00,SystemResetWarning,0829.8,4.99,000.00,029.3,027.4,000.0,037.8,030.7,29.4,0000.0,0004.84,0009.96,0004.41
2023-06-07 17:11:00,SystemResetWarning,0829.8,4.99,000.00,029.3,027.6,000.0,037.8,030.8,29.9,0000.0,0004.90,0010.26,0004.43
2023-06-07 17:12:00,SystemResetWarning,0829.8,5.01,000.00,029.3,027.7,000.0,037.8,030.8,28.9,0000.0,0004.94,0010.81,0004.46
2023-06-07 17:13:00,SystemResetWarning,0829.8,5.00,000.00,029.3,027.8,000.0,037.8,030.8,29.1,0000.0,0005.01,0011.31,0004.48
2023-06-07 17:14:00,SystemResetWarning,0829.8,5.01,000.00,029.3,027.9,000.0,037.8,030.9,28.3,0000.0,0005.04,0011.43,0004.49
2023-06-07 17:15:00,SystemResetWarning,0829.8,5.00,000.00,029.4,027.9,000.0,037.9,030.9,28.1,0000.0,0005.05,0011.67,0004.49
2023-06-07 17:16:00,SystemResetWarning,0829.8,5.00,000.00,029.4,028.0,000.0,037.9,030.9,29.1,0000.0,0005.03,0011.97,0004.46
2023-06-07 17:17:00,SystemResetWarning,0829.8,5.00,000.00,029.4,028.0,000.0,037.9,031.0,28.6,0000.0,0004.99,0012.00,0004.44
2023-06-07 17:18:00,SystemResetWarning,0829.8,4.98,000.00,029.5,026.6,000.0,037.8,031.0,29.5,0000.0,0004.98,0011.24,0004.42
2023-06-07 17:19:00,SystemResetWarning,0829.8,5.01,000.00,029.4,024.8,000.0,037.8,030.9,29.8,0000.0,0005.02,0010.72,0004.42
2023-06-07 17:20:00,SystemResetWarning,0829.7,5.01,000.00,029.4,024.4,000.0,037.8,030.9,29.9,0000.0,0005.06,0010.83,0004.44
2023-06-07 17:21:00,SystemResetWarning,0829.7,5.01,000.00,029.3,024.8,000.0,037.8,030.6,30.3,0000.0,0005.09,0010.82,0004.45
2023-06-07 17:22:00,SystemResetWarning,0829.7,4.99,000.00,029.2,025.2,000.0,037.8,030.4,31.2,0000.0,0005.08,0010.14,0004.45
2023-06-07 17:23:00,SystemResetWarning,0829.7,5.00,000.00,029.2,025.6,000.0,037.7,030.4,32.5,0000.0,0005.10,0009.70,0004.48
2023-06-07 17:24:00,SystemResetWarning,0829.7,5.00,000.00,029.1,026.1,000.0,037.7,030.5,30.8,0000.0,0005.09,0010.00,0004.49
2023-06-07 17:25:00,SystemResetWarning,0829.7,5.01,000.00,029.1,026.4,000.0,037.7,030.5,30.2,0000.0,0005.15,0011.07,0004.52
2023-06-07 17:26:00,SystemResetWarning,0829.7,5.00,000.00,029.1,026.7,000.0,037.7,030.6,30.8,0000.0,0005.17,0011.23,0004.55
2023-06-07 17:27:00,SystemResetWarning,0829.7,5.00,000.00,029.2,027.0,000.0,037.7,030.6,30.7,0000.0,0005.24,0011.93,0004.62
2023-06-07 17:28:00,SystemResetWarning,0829.7,5.00,000.00,029.2,027.2,000.0,037.7,030.6,30.1,0000.0,0005.33,0012.04,0004.68
2023-06-07 17:29:00,SystemResetWarning,0829.7,5.00,000.00,029.2,027.4,000.0,037.7,030.7,29.2,0000.0,0005.41,0012.15,0004.74
2023-06-07 17:30:00,SystemResetWarning,0829.7,5.00,000.00,029.2,027.5,000.0,037.7,030.7,29.9,0000.0,0005.43,0012.74,0004.76
2023-06-07 17:31:00,SystemResetWarning,0829.7,4.99,000.00,029.2,027.6,000.0,037.7,030.7,30.1,0000.0,0005.46,0012.76,0004.79
2023-06-07 17:32:00,SystemResetWarning,0829.7,5.00,000.00,029.3,027.7,000.0,037.8,030.8,29.9,0000.0,0005.51,0012.81,0004.83
2023-06-07 17:33:00,SystemResetWarning,0829.6,5.01,000.00,029.3,027.9,000.0,037.8,030.9,30.7,0000.0,0005.61,0014.41,0004.91
2023-06-07 17:34:00,SystemResetWarning,0829.7,4.99,000.00,029.3,027.9,000.0,037.8,030.9,30.7,0000.0,0005.64,0014.50,0004.95
2023-06-07 17:35:00,SystemResetWarning,0829.6,5.00,000.00,029.3,028.0,000.0,037.8,030.9,30.3,0000.0,0005.70,0014.11,0005.00
2023-06-07 17:36:00,SystemResetWarning,0829.7,5.00,000.00,029.4,028.0,000.0,037.8,030.9,31.2,0000.0,0005.72,0013.11,0005.03
2023-06-07 17:37:00,SystemResetWarning,0829.7,4.99,000.00,029.4,027.1,000.0,037.8,031.0,31.5,0000.0,0005.78,0012.89,0005.06
2023-06-07 17:38:00,SystemResetWarning,0829.6,5.01,000.00,029.4,025.7,000.0,037.8,031.0,30.8,0000.0,0005.81,0011.97,0005.09
2023-06-07 17:39:00,SystemResetWarning,0829.6,5.01,000.00,029.4,025.7,000.0,037.7,030.9,30.3,0000.0,0005.79,0011.72,0005.09
2023-06-07 17:40:00,SystemResetWarning,0829.6,4.99,000.00,029.3,025.9,000.0,037.8,030.6,30.5,0000.0,0005.78,0011.70,0005.10
2023-06-07 17:41:00,SystemResetWarning,0829.6,5.00,000.00,029.3,026.2,000.0,037.8,030.6,32.2,0000.0,0005.79,0011.13,0005.13
2023-06-07 17:42:00,SystemResetWarning,0829.6,5.01,000.00,029.3,026.5,000.0,037.8,030.6,32.4,0000.0,0005.81,0011.24,0005.14
2023-06-07 17:43:00,SystemResetWarning,0829.6,5.00,000.00,029.3,026.8,000.0,037.8,030.6,33.5,0000.0,0005.81,0011.25,0005.15
2023-06-07 17:44:00,SystemResetWarning,0829.6,4.99,000.00,029.3,027.1,000.0,037.8,030.7,32.9,0000.0,0005.78,0010.69,0005.15
2023-06-07 17:45:00,SystemResetWarning,0829.6,4.99,000.00,029.3,027.3,000.0,037.8,030.8,32.3,0000.0,0005.77,0009.70,0005.14
2023-06-07 17:46:00,SystemResetWarning,0829.6,5.01,000.00,029.3,027.5,000.0,037.8,030.8,32.9,0000.0,0005.75,0009.87,0005.14
2023-06-07 17:47:00,SystemResetWarning,0829.6,5.00,000.00,029.3,027.6,000.0,037.8,030.8,30.8,0000.0,0005.79,0011.74,0005.15
2023-06-07 17:48:00,SystemResetWarning,0829.6,5.01,000.00,029.3,027.7,000.0,037.8,030.9,30.0,0000.0,0005.79,0012.43,0005.17
2023-06-07 17:49:00,SystemResetWarning,0829.6,5.00,000.00,029.4,027.8,000.0,037.9,030.9,29.8,0000.0,0005.80,0012.71,0005.16
2023-06-07 17:50:00,SystemResetWarning,0829.6,5.00,000.00,029.4,027.9,000.0,037.9,030.9,29.3,0000.0,0005.83,0012.86,0005.17
2023-06-07 17:51:00,SystemResetWarning,0829.5,4.98,000.00,029.4,026.7,000.0,037.8,031.0,29.6,0000.0,0005.82,0013.39,0005.15
2023-06-07 17:52:00,SystemResetWarning,0829.5,5.01,000.00,029.4,025.5,000.0,037.8,031.0,31.0,0000.0,0005.82,0013.80,0005.15
2023-06-07 17:53:00,SystemResetWarning,0829.5,5.02,000.00,029.4,025.5,000.0,037.8,030.8,29.8,0000.0,0005.82,0014.33,0005.14
2023-06-07 17:54:00,SystemResetWarning,0829.5,5.00,000.00,029.3,025.8,000.0,037.8,030.5,30.3,0000.0,0005.78,0014.43,0005.12
2023-06-07 17:55:00,SystemResetWarning,0829.5,5.00,000.00,029.2,026.1,000.0,037.8,030.5,30.9,0000.0,0005.79,0014.45,0005.14
2023-06-07 17:56:00,SystemResetWarning,0829.5,5.00,000.00,029.2,026.5,000.0,037.8,030.6,30.8,0000.0,0005.81,0014.46,0005.15
2023-06-07 17:57:00,SystemResetWarning,0829.5,5.00,000.00,029.2,026.8,000.0,037.8,030.6,32.0,0000.0,0005.80,0014.33,0005.14
2023-06-07 17:58:00,SystemResetWarning,0829.5,5.00,000.00,029.3,027.0,000.0,037.8,030.7,32.4,0000.0,0005.73,0012.48,0005.11
2023-06-07 17:59:00,SystemResetWarning,0829.5,5.00,000.00,029.3,027.3,000.0,037.8,030.7,31.2,0000.0,0005.67,0011.58,0005.04
